sat.trackr.live / text

‹ back to catalog

STARLINK-36411

NORAD 67608 · 2026-018V

PAYLOAD ACTIVE UNKNOWN

§ Identity

Operator
Country
US
Launch date
2026-01-29
Launch site
AFWTR
Launch vehicle
Mass (kg)
RCS (m²)

Purposes: comms

External: N2YO · Heavens-Above · Gunter

§ Orbital elements

Epoch: 2026-09-19T10:37:21.405504Z

Period
93.91 min
Inclination
97.2871°
Eccentricity
0.0000216
Mean motion
15.33449900 rev/d
Perigee alt
465.4 km
Apogee alt
465.7 km
Semi-major
6,843.7 km
B*
5.9067e-4
RAAN
325.8465°
Arg perigee
249.8706°
Mean anomaly
110.2513°
Rev number
3,702

§ Raw data

STARLINK-364111 67608U 26018V   26262.44260886  .00019045  00000+0  59067-3 0  99982 67608  97.2871 325.8465 0000216 249.8706 110.2513 15.33449900 37024

JSON: /api/v1/satellites/67608 · /tle

For live sub-satellite position, see the globe view (requires WebGL).

§ Visibility from observer

Set your observer location to see the next 7 days of passes ≥ 10°. The values pass through the URL so the page stays shareable.

No JS? Fill the form by hand. The geolocation button needs JavaScript.